Weather History for San Jose, Costa Rica

Change the Weather History Date:

Tuesday, February 19, 2013

  Actual Average Record
Temperature  
Mean Temperature 74 °F -  
Max Temperature 84 °F 82 °F 89 °F (1998)
Min Temperature 65 °F 64 °F 62 °F (2007)
Cooling Degree Days 10    
Growing Degree Days 24 (Base 50)    
Moisture  
Dew Point 53 °F    
Average Humidity 50    
Maximum Humidity 68    
Minimum Humidity 7    
Precipitation  
Precipitation 0.00 in 0.02 in - ()
Sea Level Pressure  
Sea Level Pressure 29.92 in    
Wind  
Wind Speed 13 mph ()    
Max Wind Speed 28 mph    
Max Gust Speed 29 mph    
Visibility 8.4 miles    
Events      
Averages and records for this station are not official NWS values.
T = Trace of Precipitation, MM = Missing Value Source: Averaged Metar Reports

Daily Weather History Graph

Daily Weather History Graph

Search for Another Location

Airport:

Trip Planner

Search our weather history database for the weather conditions in past years. The results will help you decide how hot, cold, wet, or windy it might be!

Date:

Astronomy

Feb. 19, 2013 Rise Set
Actual Time 5:55 AM CST 5:46 PM CST
Civil Twilight 5:33 AM CST 6:07 PM CST
Nautical Twilight 5:09 AM CST 6:32 PM CST
Astronomical Twilight 4:44 AM CST 6:56 PM CST
Moon 12:48 PM CST (2/19) 12:55 AM CST (2/19)
Length of Visible Light 12h 33m
Length of Day
11h 51m
Waxing Gibbous, 67% of the Moon is Illuminated
Feb 19
Waxing Gibbous
Feb 25
Full
Mar 4
Last Quarter
Mar 11
New
Mar 19
First Quarter

Hourly Weather History & Observations

Time (CST) Temp. Heat Index Dew Point Humidity Pressure Visibility Wind Dir Wind Speed Gust Speed Precip Events Conditions
12:00 AM 68 °F - 49 °F 41% 29.85 in 12 mi East 13.8 mph - -  
12:00 AM 68.0 °F - 50.0 °F 52% 29.98 in - East 13.8 mph 25.3 mph N/A   Clear
1:00 AM 68.0 °F - 51.8 °F 56% 29.95 in - East 11.5 mph 23.0 mph N/A   Clear
2:00 AM 68.0 °F - 50.0 °F 52% 29.94 in - East 12.7 mph 26.5 mph N/A   Clear
3:00 AM 67 °F - 52 °F 49% 29.77 in 12 mi East 13.8 mph - -  
3:00 AM 66.2 °F - 51.8 °F 60% 29.93 in - East 13.8 mph - N/A   Clear
4:00 AM 68.0 °F - 53.6 °F 60% 29.93 in - East 16.1 mph 28.8 mph N/A   Clear
5:00 AM 68.0 °F - 53.6 °F 60% 29.94 in - East 16.1 mph - N/A   Clear
6:00 AM 67 °F - 55 °F 55% 29.82 in 12 mi East 12.7 mph - -  
6:00 AM 68.0 °F - 55.4 °F 64% 29.96 in - East 12.7 mph 24.2 mph N/A   Clear
7:00 AM 69.8 °F - 57.2 °F 64% 29.98 in - ESE 12.7 mph 24.2 mph N/A   Clear
8:00 AM 71.6 °F - 57.2 °F 60% 30.00 in - ESE 12.7 mph 24.2 mph N/A   Clear
9:00 AM 74 °F - 56 °F 43% 29.87 in 12 mi East 27.6 mph - -  
9:00 AM 73.4 °F - 55.4 °F 53% 30.02 in - East 15.0 mph 27.6 mph N/A   Clear
10:00 AM 77.0 °F - 55.4 °F 47% 30.02 in 6.2 mi East 16.1 mph 27.6 mph N/A   Partly Cloudy
11:00 AM 80.6 °F 80.3 °F 53.6 °F 39% 30.00 in 6.2 mi East 12.7 mph 25.3 mph N/A   Partly Cloudy
12:00 PM 81 °F - 54 °F 29% 29.83 in 12 mi East 23.0 mph - -   Scattered Clouds
12:00 PM 80.6 °F 80.3 °F 53.6 °F 39% 29.98 in 6.2 mi East 11.5 mph 23.0 mph N/A   Partly Cloudy
1:00 PM 80.6 °F 80.3 °F 53.6 °F 39% 29.96 in 6.2 mi East 13.8 mph 25.3 mph N/A   Partly Cloudy
2:00 PM 82.4 °F 81.4 °F 53.6 °F 37% 29.93 in 6.2 mi East 12.7 mph - N/A   Partly Cloudy
3:00 PM 82 °F - 54 °F 27% 29.76 in 12 mi East 11.5 mph - -   Scattered Clouds
3:00 PM 82.4 °F 81.4 °F 53.6 °F 37% 29.91 in 6.2 mi East 11.5 mph - N/A   Partly Cloudy
4:00 PM 80.6 °F 80.5 °F 55.4 °F 42% 29.92 in 6.2 mi East 12.7 mph 24.2 mph N/A   Partly Cloudy
5:00 PM 75.2 °F - 6.8 °F 7% 29.92 in 6.2 mi East 15.0 mph - N/A   Partly Cloudy
6:00 PM 72 °F - 58 °F 53% 29.80 in 12 mi ESE 11.5 mph - -   Scattered Clouds
7:00 PM 71.6 °F - 59.0 °F 64% 29.95 in 6.2 mi East 12.7 mph - N/A   Partly Cloudy
8:00 PM 69.8 °F - 59.0 °F 68% 29.98 in 6.2 mi East 11.5 mph 23.0 mph N/A   Partly Cloudy
9:00 PM 66 °F - 54 °F 56% 29.77 in 12 mi East 13.8 mph - -   Scattered Clouds
9:00 PM 68.0 °F - 57.2 °F 68% 29.99 in 6.2 mi ESE 11.5 mph - N/A   Partly Cloudy
10:00 PM 69.8 °F - 55.4 °F 60% 29.99 in 6.2 mi ENE 11.5 mph 23.0 mph N/A   Partly Cloudy
11:00 PM 68.0 °F - 57.2 °F 68% 29.98 in 6.2 mi ENE 15.0 mph 26.5 mph N/A   Partly Cloudy